owner,sensor,date,latitude,longitude,vertical_datum,wind_speed,wind_to_direction,wind_speed_of_gust,qcFlag 
WAVCIS,ioos:station:WAVCIS:CSI06:1,2018-01-01T01:00:00Z,28.8667,-90.4833,10.0,14.4,20.0,17.5,'1111122,1111122,1111122' 
WAVCIS,ioos:station:WAVCIS:CSI06:1,2018-01-01T02:00:00Z,28.8667,-90.4833,10.0,12.9,20.0,15.4,'1111122,1111122,1111122' 
WAVCIS,ioos:station:WAVCIS:CSI06:1,2018-01-01T03:00:00Z,28.8667,-90.4833,10.0,11.3,10.0,16.5,'1111122,1111122,1111122' 
WAVCIS,ioos:station:WAVCIS:CSI06:1,2018-01-01T04:00:00Z,28.8667,-90.4833,10.0,12.4,10.0,15.4,'1111122,1111122,1111122' 
WAVCIS,ioos:station:WAVCIS:CSI06:1,2018-01-01T05:00:00Z,28.8667,-90.4833,10.0,11.3,10.0,16.0,'1111122,1111122,1111122' 
WAVCIS,ioos:station:WAVCIS:CSI06:1,2018-01-01T06:00:00Z,28.8667,-90.4833,10.0,12.4,10.0,16.5,'1111122,1111122,1111122' 
WAVCIS,ioos:station:WAVCIS:CSI06:1,2018-01-01T07:00:00Z,28.8667,-90.4833,10.0,14.4,20.0,18.0,'1111122,1111122,1111122' 
WAVCIS,ioos:station:WAVCIS:CSI06:1,2018-01-01T08:00:00Z,28.8667,-90.4833,10.0,12.9,20.0,17.5,'1111122,1111122,1111122' 
WAVCIS,ioos:station:WAVCIS:CSI06:1,2018-01-03T22:00:00Z,28.8667,-90.4833,10.0,8.2,340.0,10.8,'1111122,1111122,1111122' 
WAVCIS,ioos:station:WAVCIS:CSI06:1,2018-01-03T23:00:00Z,28.8667,-90.4833,10.0,8.8,340.0,10.8,'1111122,1111122,1111122' 
WAVCIS,ioos:station:WAVCIS:CSI06:1,2018-01-04T00:00:00Z,28.8667,-90.4833,10.0,9.3,340.0,11.3,'1111122,1111122,1111122' 
WAVCIS,ioos:station:WAVCIS:CSI06:1,2018-01-04T01:00:00Z,28.8667,-90.4833,10.0,8.2,340.0,10.3,'1111122,1111122,1111122' 
WAVCIS,ioos:station:WAVCIS:CSI06:1,2018-01-04T02:00:00Z,28.8667,-90.4833,10.0,8.8,340.0,11.8,'1111122,1111122,1111122' 
WAVCIS,ioos:station:WAVCIS:CSI06:1,2018-01-04T03:00:00Z,28.8667,-90.4833,10.0,9.8,340.0,12.4,'1111122,1111122,1111122' 
WAVCIS,ioos:station:WAVCIS:CSI06:1,2018-01-04T04:00:00Z,28.8667,-90.4833,10.0,9.8,340.0,11.8,'1111122,1111122,1111122' 
WAVCIS,ioos:station:WAVCIS:CSI06:1,2018-01-04T07:00:00Z,28.8667,-90.4833,10.0,8.2,350.0,12.9,'1111122,1111122,1111122' 
WAVCIS,ioos:station:WAVCIS:CSI06:1,2018-01-04T08:00:00Z,28.8667,-90.4833,10.0,7.2,360.0,11.3,'1111122,1111122,1111122' 
WAVCIS,ioos:station:WAVCIS:CSI06:1,2018-01-04T09:00:00Z,28.8667,-90.4833,10.0,8.2,350.0,10.8,'1111122,1111122,1111122' 
WAVCIS,ioos:station:WAVCIS:CSI06:1,2018-01-04T10:00:00Z,28.8667,-90.4833,10.0,7.2,360.0,10.8,'1111122,1111122,1111122' 
WAVCIS,ioos:station:WAVCIS:CSI06:1,2018-01-04T11:00:00Z,28.8667,-90.4833,10.0,6.7,360.0,9.3,'1111122,1111122,1111122' 
WAVCIS,ioos:station:WAVCIS:CSI06:1,2018-01-04T12:00:00Z,28.8667,-90.4833,10.0,7.2,10.0,10.3,'1111122,1111122,1111122' 
WAVCIS,ioos:station:WAVCIS:CSI06:1,2018-01-04T13:00:00Z,28.8667,-90.4833,10.0,7.7,10.0,10.8,'1111122,1111122,1111122' 
WAVCIS,ioos:station:WAVCIS:CSI06:1,2018-01-04T14:00:00Z,28.8667,-90.4833,10.0,8.2,10.0,10.8,'1111122,1111122,1111122' 
WAVCIS,ioos:station:WAVCIS:CSI06:1,2018-01-04T15:00:00Z,28.8667,-90.4833,10.0,7.7,30.0,9.3,'1111122,1111122,1111122' 
WAVCIS,ioos:station:WAVCIS:CSI06:1,2018-01-04T16:00:00Z,28.8667,-90.4833,10.0,6.2,30.0,7.7,'1111122,1111122,1111122' 
WAVCIS,ioos:station:WAVCIS:CSI06:1,2018-01-04T17:00:00Z,28.8667,-90.4833,10.0,5.1,20.0,6.2,'1111122,1111122,1111122' 
WAVCIS,ioos:station:WAVCIS:CSI06:1,2018-01-04T18:00:00Z,28.8667,-90.4833,10.0,3.6,10.0,6.2,'1111122,1111122,1111122' 
WAVCIS,ioos:station:WAVCIS:CSI06:1,2018-01-04T19:00:00Z,28.8667,-90.4833,10.0,3.1,360.0,5.1,'1111122,1111122,1111122' 
WAVCIS,ioos:station:WAVCIS:CSI06:1,2018-01-04T20:00:00Z,28.8667,-90.4833,10.0,2.1,10.0,4.6,'1111122,1111122,1111122' 
WAVCIS,ioos:station:WAVCIS:CSI06:1,2018-01-04T21:00:00Z,28.8667,-90.4833,10.0,2.6,340.0,4.6,'1111122,1111122,1111122' 
WAVCIS,ioos:station:WAVCIS:CSI06:1,2018-01-04T22:00:00Z,28.8667,-90.4833,10.0,4.1,320.0,5.7,'1111122,1111122,1111122' 
WAVCIS,ioos:station:WAVCIS:CSI06:1,2018-01-04T23:00:00Z,28.8667,-90.4833,10.0,4.1,320.0,6.2,'1111122,1111122,1111122' 
WAVCIS,ioos:station:WAVCIS:CSI06:1,2018-01-05T00:00:00Z,28.8667,-90.4833,10.0,6.2,320.0,7.7,'1111122,1111122,1111122' 
WAVCIS,ioos:station:WAVCIS:CSI06:1,2018-01-05T01:00:00Z,28.8667,-90.4833,10.0,6.2,340.0,8.2,'1111122,1111122,1111122' 
WAVCIS,ioos:station:WAVCIS:CSI06:1,2018-01-05T02:00:00Z,28.8667,-90.4833,10.0,5.1,360.0,7.2,'1111122,1111122,1111122' 
WAVCIS,ioos:station:WAVCIS:CSI06:1,2018-01-05T03:00:00Z,28.8667,-90.4833,10.0,6.2,10.0,8.2,'1111122,1111122,1111122' 
WAVCIS,ioos:station:WAVCIS:CSI06:1,2018-01-05T04:00:00Z,28.8667,-90.4833,10.0,6.2,20.0,7.7,'1111122,1111122,1111122' 
WAVCIS,ioos:station:WAVCIS:CSI06:1,2018-01-05T05:00:00Z,28.8667,-90.4833,10.0,5.1,20.0,6.7,'1111122,1111122,1111122' 
WAVCIS,ioos:station:WAVCIS:CSI06:1,2018-01-05T06:00:00Z,28.8667,-90.4833,10.0,5.7,20.0,7.2,'1111122,1111122,1111122' 
WAVCIS,ioos:station:WAVCIS:CSI06:1,2018-01-05T07:00:00Z,28.8667,-90.4833,10.0,5.1,40.0,7.2,'1111122,1111122,1111122' 
WAVCIS,ioos:station:WAVCIS:CSI06:1,2018-01-05T09:00:00Z,28.8667,-90.4833,10.0,8.8,40.0,11.3,'1111122,1111122,1111122' 
WAVCIS,ioos:station:WAVCIS:CSI06:1,2018-01-05T10:00:00Z,28.8667,-90.4833,10.0,7.7,50.0,9.8,'1111122,1111122,1111122' 
WAVCIS,ioos:station:WAVCIS:CSI06:1,2018-01-05T11:00:00Z,28.8667,-90.4833,10.0,6.7,40.0,9.3,'1111122,1111122,1111122' 
WAVCIS,ioos:station:WAVCIS:CSI06:1,2018-01-05T12:00:00Z,28.8667,-90.4833,10.0,7.2,40.0,9.3,'1111122,1111122,1111122' 
WAVCIS,ioos:station:WAVCIS:CSI06:1,2018-01-05T13:00:00Z,28.8667,-90.4833,10.0,6.2,50.0,8.2,'1111122,1111122,1111122' 
WAVCIS,ioos:station:WAVCIS:CSI06:1,2018-01-05T15:00:00Z,28.8667,-90.4833,10.0,6.7,50.0,9.3,'1111122,1111122,1111122' 
WAVCIS,ioos:station:WAVCIS:CSI06:1,2018-01-05T16:00:00Z,28.8667,-90.4833,10.0,6.2,50.0,8.2,'1111122,1111122,1111122' 
WAVCIS,ioos:station:WAVCIS:CSI06:1,2018-01-05T17:00:00Z,28.8667,-90.4833,10.0,6.7,50.0,9.3,'1111122,1111122,1111122' 
WAVCIS,ioos:station:WAVCIS:CSI06:1,2018-01-05T18:00:00Z,28.8667,-90.4833,10.0,6.7,50.0,8.8,'1111122,1111122,1111122' 
WAVCIS,ioos:station:WAVCIS:CSI06:1,2018-01-05T19:00:00Z,28.8667,-90.4833,10.0,5.1,50.0,7.2,'1111122,1111122,1111122' 
WAVCIS,ioos:station:WAVCIS:CSI06:1,2018-01-05T20:00:00Z,28.8667,-90.4833,10.0,4.6,50.0,6.2,'1111122,1111122,1111122' 
WAVCIS,ioos:station:WAVCIS:CSI06:1,2018-01-05T21:00:00Z,28.8667,-90.4833,10.0,6.2,30.0,8.2,'1111122,1111122,1111122' 
WAVCIS,ioos:station:WAVCIS:CSI06:1,2018-01-05T22:00:00Z,28.8667,-90.4833,10.0,6.2,40.0,8.8,'1111122,1111122,1111122' 
WAVCIS,ioos:station:WAVCIS:CSI06:1,2018-01-05T23:00:00Z,28.8667,-90.4833,10.0,5.7,30.0,6.7,'1111122,1111122,1111122' 
WAVCIS,ioos:station:WAVCIS:CSI06:1,2018-01-06T00:00:00Z,28.8667,-90.4833,10.0,5.1,30.0,7.2,'1111122,1111122,1111122' 
WAVCIS,ioos:station:WAVCIS:CSI06:1,2018-01-06T01:00:00Z,28.8667,-90.4833,10.0,4.6,50.0,6.2,'1111122,1111122,1111122' 
WAVCIS,ioos:station:WAVCIS:CSI06:1,2018-01-06T02:00:00Z,28.8667,-90.4833,10.0,4.6,60.0,6.2,'1111122,1111122,1111122' 
WAVCIS,ioos:station:WAVCIS:CSI06:1,2018-01-06T03:00:00Z,28.8667,-90.4833,10.0,4.1,70.0,5.1,'1111122,1111122,1111122' 
WAVCIS,ioos:station:WAVCIS:CSI06:1,2018-01-06T04:00:00Z,28.8667,-90.4833,10.0,4.1,80.0,5.7,'1111122,1111122,1111122' 
WAVCIS,ioos:station:WAVCIS:CSI06:1,2018-01-06T05:00:00Z,28.8667,-90.4833,10.0,3.1,60.0,4.6,'1111122,1111122,1111122' 
WAVCIS,ioos:station:WAVCIS:CSI06:1,2018-01-06T06:00:00Z,28.8667,-90.4833,10.0,4.1,40.0,6.7,'1111122,1111122,1111122' 
WAVCIS,ioos:station:WAVCIS:CSI06:1,2018-01-06T07:00:00Z,28.8667,-90.4833,10.0,5.1,50.0,6.7,'1111122,1111122,1111122' 
WAVCIS,ioos:station:WAVCIS:CSI06:1,2018-01-06T08:00:00Z,28.8667,-90.4833,10.0,7.2,50.0,8.8,'1111122,1111122,1111122' 
WAVCIS,ioos:station:WAVCIS:CSI06:1,2018-01-06T09:00:00Z,28.8667,-90.4833,10.0,6.7,50.0,8.2,'1111122,1111122,1111122' 
WAVCIS,ioos:station:WAVCIS:CSI06:1,2018-01-06T10:00:00Z,28.8667,-90.4833,10.0,7.2,40.0,8.8,'1111122,1111122,1111122' 
WAVCIS,ioos:station:WAVCIS:CSI06:1,2018-01-06T11:00:00Z,28.8667,-90.4833,10.0,6.2,50.0,8.2,'1111122,1111122,1111122' 
WAVCIS,ioos:station:WAVCIS:CSI06:1,2018-01-06T12:00:00Z,28.8667,-90.4833,10.0,7.2,50.0,8.8,'1111122,1111122,1111122' 
WAVCIS,ioos:station:WAVCIS:CSI06:1,2018-01-06T13:00:00Z,28.8667,-90.4833,10.0,7.7,50.0,9.3,'1111122,1111122,1111122' 
WAVCIS,ioos:station:WAVCIS:CSI06:1,2018-01-06T14:00:00Z,28.8667,-90.4833,10.0,9.3,60.0,10.3,'1111122,1111122,1111122' 
WAVCIS,ioos:station:WAVCIS:CSI06:1,2018-01-06T15:00:00Z,28.8667,-90.4833,10.0,9.3,50.0,10.8,'1111122,1111122,1111122' 
WAVCIS,ioos:station:WAVCIS:CSI06:1,2018-01-06T16:00:00Z,28.8667,-90.4833,10.0,9.8,60.0,10.8,'1111122,1111122,1111122' 
WAVCIS,ioos:station:WAVCIS:CSI06:1,2018-01-06T17:00:00Z,28.8667,-90.4833,10.0,9.3,60.0,9.8,'1111122,1111122,1111122' 
WAVCIS,ioos:station:WAVCIS:CSI06:1,2018-01-06T18:00:00Z,28.8667,-90.4833,10.0,8.8,50.0,9.8,'1111122,1111122,1111122' 
WAVCIS,ioos:station:WAVCIS:CSI06:1,2018-01-06T19:00:00Z,28.8667,-90.4833,10.0,9.3,50.0,10.8,'1111122,1111122,1111122' 
WAVCIS,ioos:station:WAVCIS:CSI06:1,2018-01-06T20:00:00Z,28.8667,-90.4833,10.0,9.3,50.0,10.8,'1111122,1111122,1111122' 
WAVCIS,ioos:station:WAVCIS:CSI06:1,2018-01-06T21:00:00Z,28.8667,-90.4833,10.0,10.8,50.0,11.8,'1111122,1111122,1111122' 
WAVCIS,ioos:station:WAVCIS:CSI06:1,2018-01-06T22:00:00Z,28.8667,-90.4833,10.0,10.3,50.0,12.9,'1111122,1111122,1111122' 
WAVCIS,ioos:station:WAVCIS:CSI06:1,2018-01-06T23:00:00Z,28.8667,-90.4833,10.0,10.8,60.0,12.9,'1111122,1111122,1111122' 
WAVCIS,ioos:station:WAVCIS:CSI06:1,2018-01-07T00:00:00Z,28.8667,-90.4833,10.0,11.3,60.0,12.9,'1111122,1111122,1111122' 
WAVCIS,ioos:station:WAVCIS:CSI06:1,2018-01-07T01:00:00Z,28.8667,-90.4833,10.0,11.3,60.0,12.9,'1111122,1111122,1111122' 
WAVCIS,ioos:station:WAVCIS:CSI06:1,2018-01-07T02:00:00Z,28.8667,-90.4833,10.0,12.4,70.0,14.4,'1111122,1111122,1111122' 
WAVCIS,ioos:station:WAVCIS:CSI06:1,2018-01-07T03:00:00Z,28.8667,-90.4833,10.0,11.8,70.0,13.4,'1111122,1111122,1111122' 
WAVCIS,ioos:station:WAVCIS:CSI06:1,2018-01-07T04:00:00Z,28.8667,-90.4833,10.0,11.3,70.0,12.9,'1111122,1111122,1111122' 
WAVCIS,ioos:station:WAVCIS:CSI06:1,2018-01-07T05:00:00Z,28.8667,-90.4833,10.0,11.3,70.0,12.4,'1111122,1111122,1111122' 
WAVCIS,ioos:station:WAVCIS:CSI06:1,2018-01-07T07:00:00Z,28.8667,-90.4833,10.0,9.8,80.0,11.3,'1111122,1111122,1111122' 
WAVCIS,ioos:station:WAVCIS:CSI06:1,2018-01-07T08:00:00Z,28.8667,-90.4833,10.0,9.3,70.0,10.3,'1111122,1111122,1111122' 
WAVCIS,ioos:station:WAVCIS:CSI06:1,2018-01-07T09:00:00Z,28.8667,-90.4833,10.0,10.3,110.0,11.8,'1111122,1111122,1111122' 
WAVCIS,ioos:station:WAVCIS:CSI06:1,2018-01-07T10:00:00Z,28.8667,-90.4833,10.0,9.8,140.0,10.8,'1111122,1111122,1111122' 
WAVCIS,ioos:station:WAVCIS:CSI06:1,2018-01-07T11:00:00Z,28.8667,-90.4833,10.0,9.8,140.0,11.8,'1111122,1111122,1111122' 
WAVCIS,ioos:station:WAVCIS:CSI06:1,2018-01-07T12:00:00Z,28.8667,-90.4833,10.0,11.3,140.0,12.9,'1111122,1111122,1111122' 
WAVCIS,ioos:station:WAVCIS:CSI06:1,2018-01-07T13:00:00Z,28.8667,-90.4833,10.0,11.3,140.0,12.9,'1111122,1111122,1111122' 
WAVCIS,ioos:station:WAVCIS:CSI06:1,2018-01-07T14:00:00Z,28.8667,-90.4833,10.0,11.3,130.0,13.4,'1111122,1111122,1111122' 
WAVCIS,ioos:station:WAVCIS:CSI06:1,2018-01-07T15:00:00Z,28.8667,-90.4833,10.0,12.9,130.0,14.4,'1111122,1111122,1111122' 
WAVCIS,ioos:station:WAVCIS:CSI06:1,2018-01-07T16:00:00Z,28.8667,-90.4833,10.0,13.4,130.0,14.9,'1111122,1111122,1111122' 
WAVCIS,ioos:station:WAVCIS:CSI06:1,2018-01-07T17:00:00Z,28.8667,-90.4833,10.0,13.4,130.0,15.4,'1111122,1111122,1111122' 
WAVCIS,ioos:station:WAVCIS:CSI06:1,2018-01-07T18:00:00Z,28.8667,-90.4833,10.0,12.9,130.0,14.9,'1111122,1111122,1111122' 
WAVCIS,ioos:station:WAVCIS:CSI06:1,2018-01-07T19:00:00Z,28.8667,-90.4833,10.0,13.4,130.0,16.0,'1111122,1111122,1111122' 
WAVCIS,ioos:station:WAVCIS:CSI06:1,2018-01-07T20:00:00Z,28.8667,-90.4833,10.0,13.4,130.0,15.4,'1111122,1111122,1111122' 
WAVCIS,ioos:station:WAVCIS:CSI06:1,2018-01-07T21:00:00Z,28.8667,-90.4833,10.0,14.9,130.0,17.5,'1111122,1111122,1111122' 
WAVCIS,ioos:station:WAVCIS:CSI06:1,2018-01-07T22:00:00Z,28.8667,-90.4833,10.0,15.4,130.0,17.0,'1111122,1111122,1111122' 
WAVCIS,ioos:station:WAVCIS:CSI06:1,2018-01-07T23:00:00Z,28.8667,-90.4833,10.0,15.4,130.0,17.5,'1111122,1111122,1111122' 
WAVCIS,ioos:station:WAVCIS:CSI06:1,2018-01-08T00:00:00Z,28.8667,-90.4833,10.0,14.4,130.0,16.5,'1111122,1111122,1111122' 
WAVCIS,ioos:station:WAVCIS:CSI06:1,2018-01-08T01:00:00Z,28.8667,-90.4833,10.0,15.4,130.0,18.0,'1111122,1111122,1111122' 
WAVCIS,ioos:station:WAVCIS:CSI06:1,2018-01-08T03:00:00Z,28.8667,-90.4833,10.0,17.0,140.0,19.0,'1111122,1111122,1111122' 
WAVCIS,ioos:station:WAVCIS:CSI06:1,2018-01-08T04:00:00Z,28.8667,-90.4833,10.0,16.5,140.0,19.6,'1111122,1111122,1111122' 
WAVCIS,ioos:station:WAVCIS:CSI06:1,2018-01-08T05:00:00Z,28.8667,-90.4833,10.0,16.0,140.0,19.0,'1111122,1111122,1111122' 
WAVCIS,ioos:station:WAVCIS:CSI06:1,2018-01-08T07:00:00Z,28.8667,-90.4833,10.0,10.3,240.0,15.4,'1111122,1111122,1111122' 
WAVCIS,ioos:station:WAVCIS:CSI06:1,2018-01-08T09:00:00Z,28.8667,-90.4833,10.0,8.2,210.0,10.3,'1111122,1111122,1111122' 
WAVCIS,ioos:station:WAVCIS:CSI06:1,2018-01-08T10:00:00Z,28.8667,-90.4833,10.0,12.4,200.0,14.4,'1111122,1111122,1111122' 
WAVCIS,ioos:station:WAVCIS:CSI06:1,2018-01-08T11:00:00Z,28.8667,-90.4833,10.0,12.4,180.0,13.9,'1111122,1111122,1111122' 
WAVCIS,ioos:station:WAVCIS:CSI06:1,2018-01-08T12:00:00Z,28.8667,-90.4833,10.0,10.8,190.0,11.8,'1111122,1111122,1111122' 
WAVCIS,ioos:station:WAVCIS:CSI06:1,2018-01-08T13:00:00Z,28.8667,-90.4833,10.0,11.3,200.0,13.9,'1111122,1111122,1111122' 
WAVCIS,ioos:station:WAVCIS:CSI06:1,2018-01-08T14:00:00Z,28.8667,-90.4833,10.0,12.4,310.0,14.9,'1111122,1111122,1111122' 
WAVCIS,ioos:station:WAVCIS:CSI06:1,2018-01-08T15:00:00Z,28.8667,-90.4833,10.0,5.1,260.0,7.7,'1111122,1111122,1111122' 
WAVCIS,ioos:station:WAVCIS:CSI06:1,2018-01-08T16:00:00Z,28.8667,-90.4833,10.0,6.7,220.0,8.2,'1111122,1111122,1111122' 
WAVCIS,ioos:station:WAVCIS:CSI06:1,2018-01-08T17:00:00Z,28.8667,-90.4833,10.0,8.2,240.0,9.3,'1111122,1111122,1111122' 
WAVCIS,ioos:station:WAVCIS:CSI06:1,2018-01-08T18:00:00Z,28.8667,-90.4833,10.0,9.3,250.0,10.3,'1111122,1111122,1111122' 
WAVCIS,ioos:station:WAVCIS:CSI06:1,2018-01-08T19:00:00Z,28.8667,-90.4833,10.0,8.8,290.0,10.8,'1111122,1111122,1111122' 
WAVCIS,ioos:station:WAVCIS:CSI06:1,2018-01-08T20:00:00Z,28.8667,-90.4833,10.0,6.2,290.0,7.2,'1111122,1111122,1111122' 
WAVCIS,ioos:station:WAVCIS:CSI06:1,2018-01-08T21:00:00Z,28.8667,-90.4833,10.0,6.7,300.0,7.7,'1111122,1111122,1111122' 
WAVCIS,ioos:station:WAVCIS:CSI06:1,2018-01-08T22:00:00Z,28.8667,-90.4833,10.0,9.8,290.0,10.3,'1111122,1111122,1111122' 
WAVCIS,ioos:station:WAVCIS:CSI06:1,2018-01-08T23:00:00Z,28.8667,-90.4833,10.0,8.8,290.0,10.3,'1111122,1111122,1111122' 
WAVCIS,ioos:station:WAVCIS:CSI06:1,2018-01-09T00:00:00Z,28.8667,-90.4833,10.0,8.2,310.0,8.8,'1111122,1111122,1111122' 
WAVCIS,ioos:station:WAVCIS:CSI06:1,2018-01-09T01:00:00Z,28.8667,-90.4833,10.0,8.2,330.0,9.3,'1111122,1111122,1111122' 
WAVCIS,ioos:station:WAVCIS:CSI06:1,2018-01-09T02:00:00Z,28.8667,-90.4833,10.0,7.7,320.0,8.8,'1111122,1111122,1111122' 
WAVCIS,ioos:station:WAVCIS:CSI06:1,2018-01-09T04:00:00Z,28.8667,-90.4833,10.0,9.8,310.0,10.8,'1111122,1111122,1111122' 
WAVCIS,ioos:station:WAVCIS:CSI06:1,2018-01-09T05:00:00Z,28.8667,-90.4833,10.0,9.3,330.0,10.3,'1111122,1111122,1111122' 
WAVCIS,ioos:station:WAVCIS:CSI06:1,2018-01-09T06:00:00Z,28.8667,-90.4833,10.0,8.2,340.0,10.3,'1111122,1111122,1111122' 
WAVCIS,ioos:station:WAVCIS:CSI06:1,2018-01-09T07:00:00Z,28.8667,-90.4833,10.0,7.2,350.0,9.8,'1111122,1111122,1111122' 
WAVCIS,ioos:station:WAVCIS:CSI06:1,2018-01-09T08:00:00Z,28.8667,-90.4833,10.0,8.8,340.0,11.3,'1111122,1111122,1111122' 
WAVCIS,ioos:station:WAVCIS:CSI06:1,2018-01-09T09:00:00Z,28.8667,-90.4833,10.0,7.7,350.0,10.8,'1111122,1111122,1111122' 
WAVCIS,ioos:station:WAVCIS:CSI06:1,2018-01-09T10:00:00Z,28.8667,-90.4833,10.0,5.7,360.0,8.8,'1111122,1111122,1111122' 
WAVCIS,ioos:station:WAVCIS:CSI06:1,2018-01-09T11:00:00Z,28.8667,-90.4833,10.0,6.7,10.0,9.8,'1111122,1111122,1111122' 
WAVCIS,ioos:station:WAVCIS:CSI06:1,2018-01-09T12:00:00Z,28.8667,-90.4833,10.0,8.8,10.0,11.8,'1111122,1111122,1111122' 
WAVCIS,ioos:station:WAVCIS:CSI06:1,2018-01-09T13:00:00Z,28.8667,-90.4833,10.0,8.8,10.0,10.3,'1111122,1111122,1111122' 
WAVCIS,ioos:station:WAVCIS:CSI06:1,2018-01-09T14:00:00Z,28.8667,-90.4833,10.0,8.2,20.0,9.8,'1111122,1111122,1111122' 
WAVCIS,ioos:station:WAVCIS:CSI06:1,2018-01-09T15:00:00Z,28.8667,-90.4833,10.0,7.2,10.0,9.3,'1111122,1111122,1111122' 
WAVCIS,ioos:station:WAVCIS:CSI06:1,2018-01-09T16:00:00Z,28.8667,-90.4833,10.0,8.2,10.0,9.3,'1111122,1111122,1111122' 
WAVCIS,ioos:station:WAVCIS:CSI06:1,2018-01-09T17:00:00Z,28.8667,-90.4833,10.0,6.7,10.0,9.3,'1111122,1111122,1111122' 
WAVCIS,ioos:station:WAVCIS:CSI06:1,2018-01-09T18:00:00Z,28.8667,-90.4833,10.0,7.7,10.0,9.8,'1111122,1111122,1111122' 
WAVCIS,ioos:station:WAVCIS:CSI06:1,2018-01-09T19:00:00Z,28.8667,-90.4833,10.0,6.2,10.0,8.8,'1111122,1111122,1111122' 
WAVCIS,ioos:station:WAVCIS:CSI06:1,2018-01-09T20:00:00Z,28.8667,-90.4833,10.0,8.8,10.0,10.3,'1111122,1111122,1111122' 
WAVCIS,ioos:station:WAVCIS:CSI06:1,2018-01-09T21:00:00Z,28.8667,-90.4833,10.0,7.7,10.0,8.8,'1111122,1111122,1111122' 
WAVCIS,ioos:station:WAVCIS:CSI06:1,2018-01-09T22:00:00Z,28.8667,-90.4833,10.0,7.2,20.0,8.8,'1111122,1111122,1111122' 
WAVCIS,ioos:station:WAVCIS:CSI06:1,2018-01-09T23:00:00Z,28.8667,-90.4833,10.0,7.7,20.0,8.8,'1111122,1111122,1111122' 
WAVCIS,ioos:station:WAVCIS:CSI06:1,2018-01-10T00:00:00Z,28.8667,-90.4833,10.0,8.8,20.0,9.8,'1111122,1111122,1111122' 
WAVCIS,ioos:station:WAVCIS:CSI06:1,2018-01-10T01:00:00Z,28.8667,-90.4833,10.0,7.7,20.0,9.3,'1111122,1111122,1111122' 
WAVCIS,ioos:station:WAVCIS:CSI06:1,2018-01-10T02:00:00Z,28.8667,-90.4833,10.0,8.8,20.0,9.8,'1111122,1111122,1111122' 
WAVCIS,ioos:station:WAVCIS:CSI06:1,2018-01-10T03:00:00Z,28.8667,-90.4833,10.0,8.8,30.0,9.8,'1111122,1111122,1111122' 
WAVCIS,ioos:station:WAVCIS:CSI06:1,2018-01-10T04:00:00Z,28.8667,-90.4833,10.0,4.1,50.0,7.2,'1111122,1111122,1111122' 
WAVCIS,ioos:station:WAVCIS:CSI06:1,2018-01-10T05:00:00Z,28.8667,-90.4833,10.0,4.6,50.0,7.7,'1111122,1111122,1111122' 
WAVCIS,ioos:station:WAVCIS:CSI06:1,2018-01-10T06:00:00Z,28.8667,-90.4833,10.0,6.7,60.0,7.7,'1111122,1111122,1111122' 
WAVCIS,ioos:station:WAVCIS:CSI06:1,2018-01-10T09:00:00Z,28.8667,-90.4833,10.0,6.7,70.0,7.2,'1111122,1111122,1111122' 
WAVCIS,ioos:station:WAVCIS:CSI06:1,2018-01-10T10:00:00Z,28.8667,-90.4833,10.0,6.7,70.0,7.2,'1111122,1111122,1111122' 
WAVCIS,ioos:station:WAVCIS:CSI06:1,2018-01-10T11:00:00Z,28.8667,-90.4833,10.0,6.7,60.0,7.2,'1111122,1111122,1111122' 
WAVCIS,ioos:station:WAVCIS:CSI06:1,2018-01-10T12:00:00Z,28.8667,-90.4833,10.0,7.2,60.0,8.2,'1111122,1111122,1111122' 
WAVCIS,ioos:station:WAVCIS:CSI06:1,2018-01-10T13:00:00Z,28.8667,-90.4833,10.0,7.2,60.0,8.2,'1111122,1111122,1111122' 
WAVCIS,ioos:station:WAVCIS:CSI06:1,2018-01-10T14:00:00Z,28.8667,-90.4833,10.0,7.7,70.0,8.8,'1111122,1111122,1111122' 
WAVCIS,ioos:station:WAVCIS:CSI06:1,2018-01-10T15:00:00Z,28.8667,-90.4833,10.0,6.7,70.0,7.7,'1111122,1111122,1111122' 
WAVCIS,ioos:station:WAVCIS:CSI06:1,2018-01-10T16:00:00Z,28.8667,-90.4833,10.0,7.2,70.0,7.7,'1111122,1111122,1111122' 
WAVCIS,ioos:station:WAVCIS:CSI06:1,2018-01-10T17:00:00Z,28.8667,-90.4833,10.0,6.7,70.0,7.7,'1111122,1111122,1111122' 
WAVCIS,ioos:station:WAVCIS:CSI06:1,2018-01-10T18:00:00Z,28.8667,-90.4833,10.0,5.1,80.0,5.7,'1111122,1111122,1111122' 
WAVCIS,ioos:station:WAVCIS:CSI06:1,2018-01-10T19:00:00Z,28.8667,-90.4833,10.0,5.1,80.0,6.2,'1111122,1111122,1111122' 
WAVCIS,ioos:station:WAVCIS:CSI06:1,2018-01-10T20:00:00Z,28.8667,-90.4833,10.0,4.6,110.0,5.1,'1111122,1111122,1111122' 
WAVCIS,ioos:station:WAVCIS:CSI06:1,2018-01-10T21:00:00Z,28.8667,-90.4833,10.0,2.1,180.0,2.1,'1111122,1111122,1111122' 
WAVCIS,ioos:station:WAVCIS:CSI06:1,2018-01-10T22:00:00Z,28.8667,-90.4833,10.0,1.5,190.0,1.5,'1111122,1111122,1111122' 
WAVCIS,ioos:station:WAVCIS:CSI06:1,2018-01-10T23:00:00Z,28.8667,-90.4833,10.0,1.5,200.0,1.5,'1111122,1111122,1111122' 
WAVCIS,ioos:station:WAVCIS:CSI06:1,2018-01-11T00:00:00Z,28.8667,-90.4833,10.0,2.1,220.0,2.6,'1111122,1111122,1111122' 
WAVCIS,ioos:station:WAVCIS:CSI06:1,2018-01-11T01:00:00Z,28.8667,-90.4833,10.0,1.0,140.0,1.5,'1111122,1111122,1111122' 
WAVCIS,ioos:station:WAVCIS:CSI06:1,2018-01-11T02:00:00Z,28.8667,-90.4833,10.0,2.6,90.0,2.6,'1111122,1111122,1111122' 
WAVCIS,ioos:station:WAVCIS:CSI06:1,2018-01-11T03:00:00Z,28.8667,-90.4833,10.0,5.7,90.0,6.2,'1111122,1111122,1111122' 
WAVCIS,ioos:station:WAVCIS:CSI06:1,2018-01-11T04:00:00Z,28.8667,-90.4833,10.0,5.1,100.0,5.1,'1111122,1111122,1111122' 
WAVCIS,ioos:station:WAVCIS:CSI06:1,2018-01-11T05:00:00Z,28.8667,-90.4833,10.0,4.1,110.0,4.6,'1111122,1111122,1111122' 
WAVCIS,ioos:station:WAVCIS:CSI06:1,2018-01-11T07:00:00Z,28.8667,-90.4833,10.0,5.1,110.0,5.1,'1111122,1111122,1111122' 
WAVCIS,ioos:station:WAVCIS:CSI06:1,2018-01-11T08:00:00Z,28.8667,-90.4833,10.0,4.6,120.0,4.6,'1111122,1111122,1111122' 
WAVCIS,ioos:station:WAVCIS:CSI06:1,2018-01-11T09:00:00Z,28.8667,-90.4833,10.0,4.1,150.0,4.1,'1111122,1111122,1111122' 
WAVCIS,ioos:station:WAVCIS:CSI06:1,2018-01-11T10:00:00Z,28.8667,-90.4833,10.0,4.6,140.0,5.1,'1111122,1111122,1111122' 
WAVCIS,ioos:station:WAVCIS:CSI06:1,2018-01-11T11:00:00Z,28.8667,-90.4833,10.0,3.1,160.0,3.1,'1111122,1111122,1111122' 
WAVCIS,ioos:station:WAVCIS:CSI06:1,2018-01-11T12:00:00Z,28.8667,-90.4833,10.0,2.1,140.0,2.6,'1111122,1111122,1111122' 
WAVCIS,ioos:station:WAVCIS:CSI06:1,2018-01-11T13:00:00Z,28.8667,-90.4833,10.0,3.6,150.0,4.1,'1111122,1111122,1111122' 
WAVCIS,ioos:station:WAVCIS:CSI06:1,2018-01-11T14:00:00Z,28.8667,-90.4833,10.0,3.1,150.0,3.6,'1111122,1111122,1111122' 
WAVCIS,ioos:station:WAVCIS:CSI06:1,2018-01-11T15:00:00Z,28.8667,-90.4833,10.0,3.6,160.0,4.1,'1111122,1111122,1111122' 
WAVCIS,ioos:station:WAVCIS:CSI06:1,2018-01-11T16:00:00Z,28.8667,-90.4833,10.0,4.1,150.0,5.1,'1111122,1111122,1111122' 
WAVCIS,ioos:station:WAVCIS:CSI06:1,2018-01-11T17:00:00Z,28.8667,-90.4833,10.0,5.7,160.0,5.7,'1111122,1111122,1111122' 
WAVCIS,ioos:station:WAVCIS:CSI06:1,2018-01-11T18:00:00Z,28.8667,-90.4833,10.0,5.7,170.0,6.2,'1111122,1111122,1111122' 
WAVCIS,ioos:station:WAVCIS:CSI06:1,2018-01-11T19:00:00Z,28.8667,-90.4833,10.0,5.7,180.0,5.7,'1111122,1111122,1111122' 
WAVCIS,ioos:station:WAVCIS:CSI06:1,2018-01-11T20:00:00Z,28.8667,-90.4833,10.0,4.1,160.0,4.6,'1111122,1111122,1111122' 
WAVCIS,ioos:station:WAVCIS:CSI06:1,2018-01-11T21:00:00Z,28.8667,-90.4833,10.0,5.1,190.0,5.1,'1111122,1111122,1111122' 
WAVCIS,ioos:station:WAVCIS:CSI06:1,2018-01-11T22:00:00Z,28.8667,-90.4833,10.0,4.6,190.0,4.6,'1111122,1111122,1111122' 
WAVCIS,ioos:station:WAVCIS:CSI06:1,2018-01-11T23:00:00Z,28.8667,-90.4833,10.0,4.6,210.0,5.1,'1111122,1111122,1111122' 
WAVCIS,ioos:station:WAVCIS:CSI06:1,2018-01-12T00:00:00Z,28.8667,-90.4833,10.0,6.2,210.0,6.7,'1111122,1111122,1111122' 
WAVCIS,ioos:station:WAVCIS:CSI06:1,2018-01-12T01:00:00Z,28.8667,-90.4833,10.0,7.2,200.0,7.7,'1111122,1111122,1111122' 
WAVCIS,ioos:station:WAVCIS:CSI06:1,2018-01-12T02:00:00Z,28.8667,-90.4833,10.0,8.8,170.0,10.3,'1111122,1111122,1111122' 
WAVCIS,ioos:station:WAVCIS:CSI06:1,2018-01-12T03:00:00Z,28.8667,-90.4833,10.0,9.8,200.0,10.3,'1111122,1111122,1111122' 
WAVCIS,ioos:station:WAVCIS:CSI06:1,2018-01-12T04:00:00Z,28.8667,-90.4833,10.0,9.8,200.0,10.8,'1111122,1111122,1111122' 
WAVCIS,ioos:station:WAVCIS:CSI06:1,2018-01-12T05:00:00Z,28.8667,-90.4833,10.0,6.2,290.0,8.2,'1111122,1111122,1111122' 
WAVCIS,ioos:station:WAVCIS:CSI06:1,2018-01-12T06:00:00Z,28.8667,-90.4833,10.0,4.1,250.0,5.7,'1111122,1111122,1111122' 
WAVCIS,ioos:station:WAVCIS:CSI06:1,2018-01-12T07:00:00Z,28.8667,-90.4833,10.0,8.2,250.0,9.8,'1111122,1111122,1111122' 
WAVCIS,ioos:station:WAVCIS:CSI06:1,2018-01-12T08:00:00Z,28.8667,-90.4833,10.0,12.9,280.0,14.9,'1111122,1111122,1111122' 
WAVCIS,ioos:station:WAVCIS:CSI06:1,2018-01-12T09:00:00Z,28.8667,-90.4833,10.0,16.0,280.0,18.0,'1111122,1111122,1111122' 